• In Portugal
  • List of Countries
  • For 7 days
  • Water Temperature
  • Satellite Maps
  • Weather Map
  • Weather Widgets
  • user-avatar
    Login

    Hourly Weather Bubanza

    Today, 20 September, Wednesday

    Time Temperature Precipitation Wind Pressure Humidity
    00:00 +23°C° 0 mm 1 mps 673 mmHg 75%
    01:00 +23°C° 0 mm 1 mps 673 mmHg 76%
    02:00 +20°C° 0 mm 0 mps 673 mmHg 78%
    03:00 +20°C° 0 mm 0 mps 673 mmHg 78%
    04:00 +20°C° 0 mm 0 mps 673 mmHg 79%
    05:00 +19°C° 0 mm 0 mps 673 mmHg 79%
    06:00 +23°C° 0 mm 1 mps 674 mmHg 72%
    07:00 +25°C° 0 mm 1 mps 674 mmHg 65%
    08:00 +27°C° 0 mm 1 mps 675 mmHg 58%
    09:00 +28°C° 0.2 mm 1 mps 675 mmHg 55%
    10:00 +29°C° 0.2 mm 2 mps 675 mmHg 53%
    11:00 +30°C° 0.2 mm 2 mps 674 mmHg 50%
    12:00 +30°C° 0.4 mm 2 mps 674 mmHg 50%
    13:00 +30°C° 0.4 mm 2 mps 673 mmHg 50%
    14:00 +31°C° 0.4 mm 2 mps 673 mmHg 50%
    15:00 +30°C° 0.3 mm 2 mps 673 mmHg 51%
    16:00 +30°C° 0.3 mm 1 mps 672 mmHg 52%
    17:00 +29°C° 0.3 mm 1 mps 672 mmHg 53%
    18:00 +27°C° 0.3 mm 1 mps 672 mmHg 58%
    19:00 +26°C° 0.3 mm 1 mps 672 mmHg 62%
    20:00 +22°C° 0.3 mm 0 mps 672 mmHg 67%
    21:00 +22°C° 0.2 mm 0 mps 673 mmHg 68%
    22:00 +22°C° 0.2 mm 0 mps 673 mmHg 69%
    23:00 +23°C° 0.2 mm 1 mps 673 mmHg 70%

    Tomorrow, 21 September, Thursday

    Time Temperature Precipitation Wind Pressure Humidity
    00:00 +23°C° 0 mm 1 mps 673 mmHg 71%
    01:00 +22°C° 0 mm 1 mps 672 mmHg 72%
    02:00 +22°C° 0 mm 1 mps 672 mmHg 73%
    03:00 +22°C° 0 mm 1 mps 672 mmHg 72%
    04:00 +20°C° 0 mm 0 mps 672 mmHg 72%
    05:00 +20°C° 0 mm 0 mps 672 mmHg 71%
    06:00 +24°C° 0 mm 1 mps 673 mmHg 66%
    07:00 +25°C° 0 mm 1 mps 674 mmHg 61%
    08:00 +26°C° 0 mm 2 mps 675 mmHg 56%
    09:00 +27°C° 0.1 mm 2 mps 675 mmHg 54%
    10:00 +29°C° 0.1 mm 2 mps 675 mmHg 52%
    11:00 +30°C° 0.1 mm 2 mps 675 mmHg 50%
    12:00 +30°C° 0.1 mm 2 mps 674 mmHg 48%
    13:00 +31°C° 0.1 mm 2 mps 673 mmHg 46%
    14:00 +31°C° 0.1 mm 2 mps 672 mmHg 44%
    15:00 +31°C° 0.1 mm 2 mps 672 mmHg 46%
    16:00 +30°C° 0.1 mm 1 mps 672 mmHg 47%
    17:00 +29°C° 0.1 mm 1 mps 671 mmHg 48%
    18:00 +28°C° 0 mm 1 mps 672 mmHg 53%
    19:00 +26°C° 0 mm 1 mps 672 mmHg 58%
    20:00 +22°C° 0 mm 0 mps 672 mmHg 63%
    21:00 +22°C° 0 mm 0 mps 672 mmHg 65%
    22:00 +22°C° 0 mm 0 mps 673 mmHg 66%
    23:00 +21°C° 0 mm 0 mps 673 mmHg 68%

    Day after tomorrow, 22 September, Friday

    Time Temperature Precipitation Wind Pressure Humidity
    00:00 +21°C° 0 mm 0 mps 672 mmHg 69%
    01:00 +20°C° 0 mm 0 mps 672 mmHg 70%
    02:00 +20°C° 0 mm 0 mps 671 mmHg 71%
    03:00 +20°C° 0 mm 0 mps 671 mmHg 72%
    04:00 +21°C° 0 mm 1 mps 671 mmHg 72%
    05:00 +21°C° 0 mm 1 mps 671 mmHg 73%
    06:00 +23°C° 0 mm 1 mps 672 mmHg 64%
    07:00 +24°C° 0 mm 2 mps 673 mmHg 54%
    08:00 +26°C° 0 mm 2 mps 674 mmHg 45%
    09:00 +28°C° 0 mm 2 mps 675 mmHg 39%
    10:00 +30°C° 0 mm 2 mps 675 mmHg 33%
    11:00 +32°C° 0 mm 2 mps 675 mmHg 27%
    12:00 +34°C° 0 mm 2 mps 674 mmHg 26%
    13:00 +34°C° 0 mm 2 mps 673 mmHg 25%
    14:00 +35°C° 0 mm 2 mps 672 mmHg 24%
    15:00 +34°C° 0 mm 2 mps 671 mmHg 26%
    16:00 +32°C° 0 mm 2 mps 671 mmHg 28%
    17:00 +31°C° 0 mm 1 mps 670 mmHg 31%
    18:00 +29°C° 0 mm 1 mps 671 mmHg 35%
    19:00 +27°C° 0 mm 1 mps 671 mmHg 39%
    20:00 +23°C° 0 mm 0 mps 672 mmHg 43%
    21:00 +23°C° 0 mm 0 mps 672 mmHg 44%
    22:00 +22°C° 0 mm 0 mps 672 mmHg 45%
    23:00 +24°C° 0 mm 1 mps 673 mmHg 47%

    23 September, Saturday

    Time Temperature Precipitation Wind Pressure Humidity
    00:00 +23°C° 0 mm 1 mps 672 mmHg 48%
    01:00 +23°C° 0 mm 1 mps 671 mmHg 50%
    02:00 +22°C° 0 mm 1 mps 671 mmHg 51%
    03:00 +22°C° 0 mm 1 mps 671 mmHg 52%
    04:00 +22°C° 0 mm 1 mps 671 mmHg 52%
    05:00 +22°C° 0 mm 1 mps 671 mmHg 53%
    06:00 +24°C° 0 mm 1 mps 672 mmHg 47%
    07:00 +26°C° 0 mm 1 mps 674 mmHg 41%
    08:00 +28°C° 0 mm 1 mps 675 mmHg 35%
    09:00 +30°C° 0 mm 2 mps 675 mmHg 32%
    10:00 +32°C° 0 mm 2 mps 675 mmHg 29%
    11:00 +34°C° 0 mm 2 mps 675 mmHg 26%
    12:00 +35°C° 0 mm 2 mps 674 mmHg 26%
    13:00 +35°C° 0 mm 2 mps 673 mmHg 25%
    14:00 +35°C° 0 mm 2 mps 672 mmHg 25%
    15:00 +34°C° 0 mm 2 mps 672 mmHg 28%
    16:00 +32°C° 0 mm 1 mps 671 mmHg 30%
    17:00 +31°C° 0 mm 1 mps 671 mmHg 33%
    18:00 +29°C° 0 mm 1 mps 672 mmHg 35%
    19:00 +28°C° 0 mm 1 mps 672 mmHg 38%
    20:00 +26°C° 0 mm 1 mps 673 mmHg 40%
    21:00 +26°C° 0 mm 1 mps 673 mmHg 42%
    22:00 +25°C° 0 mm 1 mps 673 mmHg 44%
    23:00 +24°C° 0 mm 1 mps 673 mmHg 46%

    24 September, Sunday

    Time Temperature Precipitation Wind Pressure Humidity
    00:00 +24°C° 0 mm 1 mps 672 mmHg 47%
    01:00 +23°C° 0 mm 1 mps 672 mmHg 48%
    02:00 +23°C° 0 mm 1 mps 671 mmHg 49%
    03:00 +23°C° 0 mm 1 mps 672 mmHg 51%
    04:00 +23°C° 0 mm 1 mps 672 mmHg 52%
    05:00 +23°C° 0 mm 1 mps 672 mmHg 54%
    06:00 +24°C° 0 mm 1 mps 673 mmHg 49%
    07:00 +25°C° 0 mm 1 mps 673 mmHg 45%
    08:00 +25°C° 0 mm 0 mps 674 mmHg 41%
    09:00 +28°C° 0 mm 1 mps 674 mmHg 40%
    10:00 +29°C° 0 mm 2 mps 674 mmHg 38%
    11:00 +30°C° 0 mm 2 mps 674 mmHg 36%
    12:00 +31°C° 0 mm 2 mps 673 mmHg 35%
    13:00 +31°C° 0 mm 2 mps 672 mmHg 34%
    14:00 +32°C° 0 mm 2 mps 672 mmHg 33%
    15:00 +31°C° 0 mm 2 mps 671 mmHg 36%
    16:00 +30°C° 0 mm 1 mps 671 mmHg 38%
    17:00 +29°C° 0 mm 1 mps 671 mmHg 41%
    18:00 +28°C° 0 mm 1 mps 671 mmHg 44%
    19:00 +27°C° 0 mm 1 mps 672 mmHg 47%
    20:00 +23°C° 0 mm 0 mps 672 mmHg 51%
    21:00 +23°C° 0.1 mm 0 mps 672 mmHg 52%
    22:00 +23°C° 0.1 mm 0 mps 672 mmHg 54%
    23:00 +22°C° 0.1 mm 0 mps 672 mmHg 56%

    25 September, Monday

    Time Temperature Precipitation Wind Pressure Humidity
    00:00 +22°C° 0.2 mm 0 mps 672 mmHg 56%
    01:00 +22°C° 0.2 mm 0 mps 671 mmHg 57%
    02:00 +22°C° 0.2 mm 0 mps 671 mmHg 58%
    03:00 +21°C° 0.1 mm 0 mps 671 mmHg 60%
    04:00 +21°C° 0.1 mm 0 mps 671 mmHg 61%
    05:00 +20°C° 0.1 mm 0 mps 671 mmHg 62%
    06:00 +23°C° 0.1 mm 1 mps 672 mmHg 61%
    07:00 +24°C° 0.1 mm 1 mps 673 mmHg 59%
    08:00 +25°C° 0.1 mm 2 mps 673 mmHg 57%
    09:00 +26°C° 0.1 mm 2 mps 673 mmHg 56%
    10:00 +27°C° 0.1 mm 2 mps 673 mmHg 54%
    11:00 +28°C° 0.1 mm 2 mps 673 mmHg 52%
    12:00 +29°C° 0 mm 2 mps 672 mmHg 48%
    13:00 +30°C° 0 mm 2 mps 672 mmHg 44%
    14:00 +31°C° 0 mm 2 mps 671 mmHg 41%
    15:00 +30°C° 0 mm 1 mps 671 mmHg 43%
    16:00 +29°C° 0 mm 1 mps 671 mmHg 45%
    17:00 +29°C° 0 mm 1 mps 670 mmHg 47%
    18:00 +27°C° 0 mm 1 mps 671 mmHg 50%
    19:00 +26°C° 0 mm 1 mps 671 mmHg 54%
    20:00 +23°C° 0 mm 0 mps 671 mmHg 58%
    21:00 +22°C° 0 mm 0 mps 671 mmHg 59%
    22:00 +22°C° 0 mm 0 mps 671 mmHg 59%
    23:00 +24°C° 0 mm 1 mps 671 mmHg 60%
    Show more